Overview Statistics Trail Chart Weather Telemetry Raw packets
 

This is the latest recevied weather packets stored in our database for station/object KA1JKB. If no packets are shown the sender has not sent any weather packets the latest 10 day(s).

<< 36 37 38 39 40 41 42 >>
Time Temp. Humidity Pressure Rain* Wind** Luminosity Snow
1788187736 25° C 89% 1015.6 hPa 0 mm - 180 W/m² -
1788187432 24.44° C 89% 1015.6 hPa 0 mm - 190 W/m² -
1788187127 24.44° C 88% 1015.7 hPa 0 mm - 187 W/m² -
1788186822 23.89° C 89% 1015.4 hPa 0 mm - 204 W/m² -
1788186517 23.89° C 90% 1015.5 hPa 0 mm - 262 W/m² -
1788186213 23.33° C 91% 1015.5 hPa 0 mm - 269 W/m² -
1788185912 23.33° C 94% 1015.5 hPa 0 mm - 249 W/m² -
1788185607 22.78° C 95% 1015.3 hPa 0 mm - 222 W/m² -
1788185301 22.22° C 96% 1015.1 hPa 0 mm - 134 W/m² -
1788184996 22.22° C 95% 1015.3 hPa 0 mm - 82 W/m² -
1788184694 22.22° C 95% 1015.2 hPa 0 mm - 51 W/m² -
1788184390 22.22° C 95% 1015.5 hPa 0 mm - 36 W/m² -
1788184085 22.22° C 95% 1015.4 hPa 0 mm - 39 W/m² -
1788183781 22.22° C 94% 1015.3 hPa 0 mm - 46 W/m² -
1788183481 22.22° C 94% 1015.4 hPa 0 mm - 58 W/m² -
1788183181 22.22° C 94% 1015.2 hPa 0 mm - 59 W/m² -
1788182876 22.22° C 94% 1015.1 hPa 0 mm - 72 W/m² -
1788182571 22.22° C 94% 1015.2 hPa 0 mm - 61 W/m² -
1788182270 22.22° C 94% 1014.8 hPa 0 mm - 73 W/m² -
1788181967 22.22° C 94% 1014.6 hPa 0 mm - 74 W/m² -
1788181668 22.22° C 94% 1014.9 hPa 0 mm - 54 W/m² -
1788181357 22.22° C 94% 1014.8 hPa 0 mm - 43 W/m² -
1788181055 22.22° C 93% 1014.8 hPa 0 mm - 34 W/m² -
1788180753 22.22° C 93% 1014.7 hPa 0 mm - 32 W/m² -
1788180452 22.22° C 93% 1014.6 hPa 0 mm - 37 W/m² -

* Rain latest hour (hover to see other rain measurements)
** Current wind speed in m/s (hover to see current wind gust speed)